When you browse on this site, cookies collect data to enhance your experience and personalize the content and advertising you see.
Visit our Privacy Policy to learn more. By continuing to use the site, you agree to this use of cookies and data.
  • In Latvia
  • List of Countries
  • For 7 days
  • Water Temperature
  • Satellite Maps
  • Weather Map
  • Weather Widgets
  • user-avatar
    Login

    Hourly Weather Ghent

    Today, 22 April, Monday

    Time Temperature Precipitation Wind Pressure Humidity
    00:00 +14°C° 0 mm 3 mps 759 mmHg 53%
    01:00 +14°C° 0 mm 2 mps 758 mmHg 54%
    02:00 +14°C° 0 mm 2 mps 758 mmHg 56%
    03:00 +13°C° 0 mm 2 mps 757 mmHg 58%
    04:00 +13°C° 0 mm 2 mps 757 mmHg 61%
    05:00 +14°C° 0 mm 2 mps 757 mmHg 64%
    06:00 +14°C° 0 mm 2 mps 756 mmHg 66%
    07:00 +16°C° 0 mm 2 mps 756 mmHg 62%
    08:00 +18°C° 0 mm 3 mps 756 mmHg 57%
    09:00 +20°C° 0 mm 3 mps 755 mmHg 52%
    10:00 +22°C° 0 mm 3 mps 755 mmHg 47%
    11:00 +23°C° 0 mm 4 mps 754 mmHg 42%
    12:00 +25°C° 0 mm 4 mps 754 mmHg 37%
    13:00 +26°C° 0 mm 4 mps 754 mmHg 37%
    14:00 +26°C° 0 mm 4 mps 753 mmHg 37%
    15:00 +26°C° 0 mm 4 mps 752 mmHg 37%
    16:00 +25°C° 0 mm 4 mps 752 mmHg 43%
    17:00 +22°C° 0 mm 4 mps 752 mmHg 48%
    18:00 +21°C° 0 mm 4 mps 751 mmHg 54%
    19:00 +20°C° 0 mm 4 mps 751 mmHg 54%
    20:00 +19°C° 0 mm 4 mps 751 mmHg 54%
    21:00 +17°C° 0 mm 4 mps 751 mmHg 55%
    22:00 +17°C° 0 mm 4 mps 751 mmHg 57%
    23:00 +15°C° 0 mm 4 mps 751 mmHg 59%

    Tomorrow, 23 April, Tuesday

    Time Temperature Precipitation Wind Pressure Humidity
    00:00 +15°C° 0 mm 5 mps 751 mmHg 61%
    01:00 +14°C° 0 mm 4 mps 750 mmHg 62%
    02:00 +13°C° 0 mm 4 mps 750 mmHg 62%
    03:00 +12°C° 0 mm 4 mps 749 mmHg 63%
    04:00 +12°C° 0 mm 4 mps 749 mmHg 65%
    05:00 +12°C° 0 mm 4 mps 749 mmHg 66%
    06:00 +12°C° 0 mm 5 mps 749 mmHg 68%
    07:00 +13°C° 0 mm 5 mps 749 mmHg 65%
    08:00 +15°C° 0 mm 5 mps 749 mmHg 62%
    09:00 +16°C° 0 mm 5 mps 748 mmHg 59%
    10:00 +17°C° 0 mm 5 mps 748 mmHg 57%
    11:00 +20°C° 0 mm 5 mps 748 mmHg 54%
    12:00 +21°C° 0 mm 4 mps 747 mmHg 52%
    13:00 +21°C° 0 mm 4 mps 747 mmHg 51%
    14:00 +22°C° 0 mm 4 mps 747 mmHg 51%
    15:00 +22°C° 0 mm 3 mps 746 mmHg 51%
    16:00 +21°C° 0 mm 3 mps 746 mmHg 55%
    17:00 +21°C° 0 mm 3 mps 746 mmHg 59%
    18:00 +20°C° 0 mm 2 mps 746 mmHg 64%
    19:00 +19°C° 0 mm 2 mps 746 mmHg 66%
    20:00 +18°C° 0 mm 2 mps 746 mmHg 69%
    21:00 +17°C° 0 mm 3 mps 746 mmHg 72%
    22:00 +16°C° 0 mm 3 mps 746 mmHg 76%
    23:00 +16°C° 0 mm 2 mps 746 mmHg 80%

    Day after tomorrow, 24 April, Wednesday

    Time Temperature Precipitation Wind Pressure Humidity
    00:00 +15°C° 0 mm 2 mps 746 mmHg 83%
    01:00 +14°C° 0 mm 3 mps 746 mmHg 86%
    02:00 +13°C° 0 mm 3 mps 746 mmHg 89%
    03:00 +13°C° 0 mm 3 mps 746 mmHg 92%
    04:00 +13°C° 0 mm 4 mps 746 mmHg 90%
    05:00 +13°C° 0 mm 4 mps 746 mmHg 87%
    06:00 +14°C° 0 mm 5 mps 746 mmHg 84%
    07:00 +15°C° 0 mm 6 mps 747 mmHg 78%
    08:00 +17°C° 0 mm 6 mps 747 mmHg 72%
    09:00 +18°C° 0 mm 7 mps 747 mmHg 66%
    10:00 +20°C° 0 mm 8 mps 747 mmHg 62%
    11:00 +21°C° 0 mm 9 mps 747 mmHg 58%
    12:00 +22°C° 0 mm 10 mps 748 mmHg 54%
    13:00 +19°C° 0.3 mm 9 mps 748 mmHg 61%
    14:00 +17°C° 0.3 mm 9 mps 749 mmHg 68%
    15:00 +13°C° 0.3 mm 8 mps 749 mmHg 75%
    16:00 +14°C° 0.1 mm 6 mps 750 mmHg 75%
    17:00 +14°C° 0.1 mm 5 mps 750 mmHg 75%
    18:00 +13°C° 0.1 mm 3 mps 751 mmHg 75%
    19:00 +13°C° 0 mm 4 mps 751 mmHg 76%
    20:00 +12°C° 0 mm 4 mps 752 mmHg 78%
    21:00 +12°C° 0 mm 5 mps 752 mmHg 80%
    22:00 +12°C° 0 mm 5 mps 752 mmHg 79%
    23:00 +10°C° 0 mm 5 mps 752 mmHg 77%

    25 April, Thursday

    Time Temperature Precipitation Wind Pressure Humidity
    00:00 +10°C° 0 mm 5 mps 752 mmHg 76%
    01:00 +10°C° 0 mm 6 mps 752 mmHg 73%
    02:00 +11°C° 0 mm 6 mps 752 mmHg 70%
    03:00 +11°C° 0 mm 6 mps 751 mmHg 67%
    04:00 +11°C° 0 mm 6 mps 751 mmHg 67%
    05:00 +11°C° 0 mm 7 mps 751 mmHg 66%
    06:00 +11°C° 0 mm 7 mps 751 mmHg 66%
    07:00 +11°C° 0.2 mm 8 mps 752 mmHg 69%
    08:00 +11°C° 0.2 mm 8 mps 752 mmHg 72%
    09:00 +12°C° 0.2 mm 9 mps 753 mmHg 75%
    10:00 +12°C° 0.3 mm 8 mps 753 mmHg 75%
    11:00 +12°C° 0.3 mm 7 mps 753 mmHg 75%
    12:00 +14°C° 0.3 mm 7 mps 754 mmHg 75%
    13:00 +14°C° 0.3 mm 7 mps 754 mmHg 72%
    14:00 +14°C° 0.3 mm 7 mps 754 mmHg 69%
    15:00 +15°C° 0.3 mm 7 mps 754 mmHg 66%
    16:00 +14°C° 0 mm 6 mps 755 mmHg 68%
    17:00 +13°C° 0 mm 6 mps 755 mmHg 70%
    18:00 +13°C° 0 mm 5 mps 755 mmHg 72%
    19:00 +12°C° 0 mm 5 mps 756 mmHg 74%
    20:00 +10°C° 0 mm 5 mps 756 mmHg 76%
    21:00 +11°C° 0 mm 4 mps 756 mmHg 79%
    22:00 +11°C° 0 mm 4 mps 757 mmHg 78%
    23:00 +9°C° 0 mm 5 mps 757 mmHg 78%

    26 April, Friday

    Time Temperature Precipitation Wind Pressure Humidity
    00:00 +9°C° 0 mm 5 mps 757 mmHg 78%
    01:00 +9°C° 0 mm 5 mps 757 mmHg 78%
    02:00 +10°C° 0 mm 4 mps 757 mmHg 78%
    03:00 +8°C° 0 mm 4 mps 757 mmHg 78%
    04:00 +8°C° 0 mm 4 mps 758 mmHg 78%
    05:00 +8°C° 0 mm 4 mps 758 mmHg 79%
    06:00 +8°C° 0 mm 4 mps 758 mmHg 79%
    07:00 +10°C° 0 mm 4 mps 759 mmHg 75%
    08:00 +10°C° 0 mm 5 mps 759 mmHg 71%
    09:00 +12°C° 0 mm 5 mps 759 mmHg 68%
    10:00 +13°C° 0.2 mm 5 mps 760 mmHg 66%
    11:00 +14°C° 0.2 mm 5 mps 760 mmHg 65%
    12:00 +14°C° 0.2 mm 5 mps 760 mmHg 64%
    13:00 +15°C° 0.4 mm 5 mps 761 mmHg 62%
    14:00 +15°C° 0.4 mm 6 mps 761 mmHg 60%
    15:00 +15°C° 0.4 mm 6 mps 761 mmHg 58%
    16:00 +14°C° 0 mm 5 mps 761 mmHg 61%
    17:00 +14°C° 0 mm 5 mps 762 mmHg 64%
    18:00 +13°C° 0 mm 4 mps 762 mmHg 67%
    19:00 +12°C° 0 mm 4 mps 762 mmHg 68%
    20:00 +10°C° 0 mm 4 mps 762 mmHg 70%
    21:00 +9°C° 0 mm 3 mps 763 mmHg 72%
    22:00 +8°C° 0 mm 4 mps 763 mmHg 75%
    23:00 +8°C° 0 mm 5 mps 762 mmHg 77%

    27 April, Saturday

    Time Temperature Precipitation Wind Pressure Humidity
    00:00 +8°C° 0 mm 6 mps 762 mmHg 79%
    01:00 +9°C° 0.2 mm 6 mps 762 mmHg 81%
    02:00 +9°C° 0.2 mm 7 mps 762 mmHg 83%
    03:00 +9°C° 0.2 mm 7 mps 762 mmHg 85%
    04:00 +9°C° 0.1 mm 6 mps 762 mmHg 83%
    05:00 +9°C° 0.1 mm 5 mps 762 mmHg 81%
    06:00 +10°C° 0.1 mm 4 mps 762 mmHg 79%
    07:00 +9°C° 0.1 mm 5 mps 762 mmHg 75%
    08:00 +10°C° 0.1 mm 5 mps 762 mmHg 71%
    09:00 +11°C° 0.1 mm 6 mps 762 mmHg 68%
    10:00 +10°C° 1 mm 5 mps 763 mmHg 72%
    11:00 +9°C° 1 mm 5 mps 763 mmHg 76%
    12:00 +8°C° 1 mm 4 mps 763 mmHg 80%
    13:00 +9°C° 0 mm 5 mps 763 mmHg 70%
    14:00 +11°C° 0 mm 6 mps 764 mmHg 59%
    15:00 +12°C° 0 mm 8 mps 764 mmHg 48%
    16:00 +12°C° 0 mm 7 mps 764 mmHg 53%
    17:00 +12°C° 0 mm 5 mps 764 mmHg 58%
    18:00 +11°C° 0 mm 4 mps 764 mmHg 63%
    19:00 +11°C° 0 mm 4 mps 764 mmHg 64%
    20:00 +10°C° 0 mm 4 mps 764 mmHg 65%
    21:00 +8°C° 0 mm 4 mps 764 mmHg 66%
    22:00 +8°C° 0 mm 4 mps 764 mmHg 69%
    23:00 +8°C° 0 mm 5 mps 764 mmHg 72%
    Show more